Weather History for Topeka Forbes, KS

Change the Weather History Date:

Monday, December 30, 2013

  Actual Average Record
Temperature  
Mean Temperature 22 °F -  
Max Temperature 35 °F 36 °F 70 °F (2004)
Min Temperature 8 °F 16 °F -11 °F (1983)
Degree Days  
Heating Degree Days 44    
Moisture  
Dew Point 6 °F    
Average Humidity 56    
Maximum Humidity 78    
Minimum Humidity 31    
Precipitation  
Precipitation 0.00 in - - ()
Sea Level Pressure  
Sea Level Pressure 30.29 in    
Wind  
Wind Speed 6 mph (SSW)    
Max Wind Speed 16 mph    
Max Gust Speed -    
Visibility 10 miles    
Events      
Averages and records for this station are not official NWS values.
T = Trace of Precipitation, MM = Missing Value Source: NWS Daily Summary

Daily Weather History Graph

Daily Weather History Graph

Search for Another Location

Airport:

Trip Planner

Search our weather history database for the weather conditions in past years. The results will help you decide how hot, cold, wet, or windy it might be!

Date:

Astronomy

Dec. 30, 2013 Rise Set
Actual Time 7:41 AM CST 5:09 PM CST
Civil Twilight 7:11 AM CST 5:39 PM CST
Nautical Twilight 6:37 AM CST 6:13 PM CST
Astronomical Twilight 6:05 AM CST 6:45 PM CST
Moon 5:32 AM CST (12/30) 3:43 PM CST (12/30)
Length of Visible Light 10h 28m
Length of Day
9h 28m
Waning Crescent, 4% of the Moon is Illuminated
Dec 30
Waning Crescent
Jan 1
New
Jan 7
First Quarter
Jan 15
Full
Jan 23
Last Quarter

Hourly Weather History & Observations

Time (CST) Temp. Windchill Dew Point Humidity Pressure Visibility Wind Dir Wind Speed Gust Speed Precip Events Conditions
12:53 AM 9.0 °F - -0.9 °F 64% 30.35 in 10.0 mi Calm Calm - N/A   Clear
1:53 AM 8.1 °F - 1.0 °F 73% 30.34 in 10.0 mi Calm Calm - N/A   Clear
2:53 AM 8.1 °F - -0.0 °F 70% 30.35 in 10.0 mi Calm Calm - N/A   Clear
3:53 AM 9.0 °F 2.4 °F -0.0 °F 67% 30.34 in 10.0 mi SSE 3.5 mph - N/A   Clear
4:53 AM 10.0 °F 1.8 °F 1.9 °F 70% 30.32 in 10.0 mi SSE 4.6 mph - N/A   Clear
5:53 AM 10.9 °F 1.4 °F 1.0 °F 64% 30.31 in 10.0 mi SE 5.8 mph - N/A   Clear
6:53 AM 12.0 °F 5.9 °F -0.0 °F 59% 30.33 in 10.0 mi South 3.5 mph - N/A   Partly Cloudy
7:53 AM 12.9 °F -0.2 °F -0.0 °F 56% 30.32 in 10.0 mi SSE 10.4 mph - N/A   Overcast
8:53 AM 12.9 °F -2.8 °F -0.9 °F 54% 30.30 in 10.0 mi SSE 15.0 mph - N/A   Overcast
9:53 AM 16.0 °F 2.3 °F -0.9 °F 47% 30.30 in 10.0 mi South 12.7 mph - N/A   Overcast
10:53 AM 19.0 °F 6.8 °F -0.0 °F 43% 30.29 in 10.0 mi SSW 11.5 mph - N/A   Overcast
11:53 AM 21.9 °F 9.8 °F 1.9 °F 42% 30.26 in 10.0 mi SSW 12.7 mph - N/A   Overcast
12:53 PM 27.0 °F 15.2 °F 3.0 °F 36% 30.23 in 10.0 mi SSW 15.0 mph - N/A   Overcast
1:53 PM 30.9 °F 19.8 °F 5.0 °F 33% 30.20 in 10.0 mi SSW 16.1 mph - N/A   Clear
2:53 PM 34.0 °F 24.2 °F 6.1 °F 31% 30.20 in 10.0 mi SW 15.0 mph - N/A   Clear
3:53 PM 35.1 °F 26.9 °F 10.0 °F 35% 30.21 in 10.0 mi WSW 11.5 mph - N/A   Clear
4:53 PM 32.0 °F 24.8 °F 10.9 °F 42% 30.21 in 10.0 mi SW 8.1 mph - N/A   Clear
5:53 PM 28.0 °F 19.3 °F 12.0 °F 51% 30.22 in 10.0 mi SW 9.2 mph - N/A   Clear
6:53 PM 28.9 °F 20.4 °F 14.0 °F 54% 30.23 in 10.0 mi SW 9.2 mph - N/A   Clear
7:53 PM 27.0 °F 18.7 °F 15.1 °F 61% 30.27 in 10.0 mi SW 8.1 mph - N/A   Clear
8:53 PM 23.0 °F 13.9 °F 14.0 °F 68% 30.30 in 10.0 mi WSW 8.1 mph - N/A   Clear
9:53 PM 24.1 °F 15.2 °F 16.0 °F 71% 30.32 in 10.0 mi West 8.1 mph - N/A   Clear
10:53 PM 23.0 °F 13.1 °F 16.0 °F 74% 30.33 in 10.0 mi SW 9.2 mph - N/A   Clear
11:53 PM 21.9 °F 14.5 °F 16.0 °F 78% 30.33 in 10.0 mi West 5.8 mph - N/A   Clear